{"data":{"norad_id":42954,"epoch":"2026-05-25T05:14:13.895232Z","epoch_age_seconds":66634,"freshness":"FRESH","line1":"1 42954U 17060A   26145.21821638  .00001085  00000+0  14559-3 0  9997","line2":"2 42954  97.6530 183.9789 0017211 169.7235 190.4334 14.81151227465052","mean_motion":14.81151227,"eccentricity":0.0017211,"inclination_deg":97.653,"raan_deg":183.9789,"arg_perigee_deg":169.7235,"mean_anomaly_deg":190.4334,"bstar":0.00014559,"rev_number":46505,"period_min":97.221672827875,"perigee_km":613.63833331083,"apogee_km":637.7469156442,"semimajor_km":7003.8296244775,"source":"CELESTRAK","updated_at":"2026-05-25T13:37:55.723079Z"}}